Tracking 28790 objects as of 19-Apr-2024
HD Live streaming from Space Station
objects crossing your sky now

YARILO-2

Track YARILO-2 now!
10-day predictions
YARILO-2 is classified as:


NORAD ID: 46491
Int'l Code: 2020-068F
Perigee: 488.2 km
Apogee: 508.0 km
Inclination: 97.8 °
Period: 94.4 minutes
Semi major axis: 6869 km
RCS: Unknown
Launch date: September 28, 2020
Source: (UNK)
Launch site: PLESETSK MISSILE AND SPACE COMPLEX (PKMTR)

Uplink (MHz):
Downlink (MHz): 435.550
Beacon (MHz):
Mode: 9600bps FSK
Call sign:
Status: Inactive

Your satellite tracking list
Your tracking list is empty




NASA's NSSDC Master Catalog

Two Line Element Set (TLE):
1 46491U 20068F   24109.46026295  .00041159  00000-0  16425-2 0  9990
2 46491  97.8062  73.4555 0014408 133.5395 226.7041 15.24953129195708
Source of the keplerian elements: AFSPC